Regional Weather Roundup
Issued by NWS

Home | Current Version | Previous Version | Text Only | Print | Product List | Glossary Off
Versions: 1 2 3 4 5 6 7 8 9 10 11 12 13 14 15 16 17 18 19 20 21 22 23 24 25 26 27 28 29 30 31 32 33 34 35 36 37 38 39 40 41 42 43 44 45 46 47 48 49 50

147
ASUS43 KLOT 220308
RWRIL

ILLINOIS REGIONAL WEATHER ROUNDUP
NATIONAL WEATHER SERVICE CHICAGO/ROMEOVILLE IL
900 PM CST TUE NOV 21 2017

NOTE: "FAIR" INDICATES FEW OR NO CLOUDS BELOW 12,000 FEET WITH NO
SIGNIFICANT WEATHER AND/OR OBSTRUCTIONS TO VISIBILITY.

* THESE STATIONS ARE NOT UNDER NWS QUALITY CONTROL. THEY ALSO MAY NOT
  REPORT WEATHER SUCH AS PRECIPITATION OR FOG.

ILZ001-002-007-009-015-016-024-220400-
NORTHWEST ILLINOIS

CITY           SKY/WX    TMP DP  RH WIND       PRES   REMARKS
MOLINE         CLEAR     28  17  63 NW12      30.26R WCI  18
STERLING*      CLEAR     26  18  71 NW7       30.24R WCI  18
SAVANNA*       CLEAR     28  15  57 NW12      30.25R WCI  18
$$

ILZ003-004-008-010-011-017-018-220400-
NORTH CENTRAL ILLINOIS

CITY           SKY/WX    TMP DP  RH WIND       PRES   REMARKS
ROCKFORD       CLEAR     26  14  60 NW10      30.22R WCI  16
FREEPORT*      CLEAR     24  16  69 NW7       30.23R WCI  16
ROCHELLE*      CLEAR     26  18  72 NW7       30.21R WCI  18
DE KALB*       CLEAR     26  17  66 NW8       30.19R WCI  18
PERU*          CLEAR     26  20  77 NW9       30.22R WCI  17
$$

ILZ005-006-012>014-019>023-220400-
NORTHEAST ILLINOIS

CITY           SKY/WX    TMP DP  RH WIND       PRES   REMARKS
CHICAGO-OHARE  PTCLDY    30  14  51 N12       30.16R WCI  20
CHICAGO-MIDWAY CLEAR     30  16  56 NW15      30.17R WCI  19
AURORA         CLEAR     23  18  81 NW7       30.20R WCI  15
LANSING*       CLEAR     30  19  63 N8        30.16R WCI  23
JOLIET*        CLEAR     31  18  58 N7        30.19R WCI  24
WAUKEGAN       CLEAR     27  15  61 NW8       30.16R WCI  19
DUPAGE AIRPORT CLEAR     27  16  63 NW9       30.17R WCI  18
KANKAKEE*      CLEAR     30  23  73 NW9       30.17R WCI  22
WHEELING       CLEAR     29  16  58 NW10      30.18R WCI  20
MORRIS*        CLEAR     28  19  70 N5        30.19R WCI  23
ROMEOVILLE*    CLEAR     28  18  66 N12       30.18R WCI  18
NORTHERLY ISL    N/A     31  16  54 NW9         N/A  WCI  23
$$

LMZ740>746-220400-
SOUTHERN LAKE MICHIGAN

STATION/POSITION SKY/WX   TEMP    WIND        PRES    VSBY  WAVE
                          AIR SEA DIR/SP/G                  HT/PER
                          (F)     (DEG/KT/KT) (MB)    (MI)  (FT/S)
SOUTHERN BUOY              34 47  340/ 17/ 25 1019.7          6/ 6
HARRISON CRIB              32     320/ 19/ 24   N/A
BURNHAM HARBOR             31     270/  8/ 18   N/A
CALUMET HARBOR             30     300/ 13/ 17 1020.7R
BURNS HARBOR               34     310/ 16/ 22 1020.7R
MICHIGAN CITY              33     330/ 18/ 21   N/A
$$

ILZ025>027-034>036-040-047-049-050-058-095>099-220400-
WEST-CENTRAL ILLINOIS

CITY           SKY/WX    TMP DP  RH WIND       PRES   REMARKS
QUINCY         CLEAR     28  19  69 N12       30.28R WCI  18
GALESBURG*     CLEAR     26  21  80 NW8       30.27R WCI  18
MACOMB*        CLEAR     28  20  74 NW10      30.28R WCI  18
JACKSONVILLE*  CLEAR     29  20  69 NW10      30.26R WCI  20
PITTSFIELD*    CLEAR     30  20  67 NW3       30.29R
$$

ILZ028>032-037-038-041>044-048-051>054-059>061-220400-
CENTRAL ILLINOIS

CITY           SKY/WX    TMP DP  RH WIND       PRES   REMARKS
PONTIAC        CLEAR     29  25  85 NW9       30.20R WCI  21
BLOOMINGTON    CLEAR     28  20  71 NW13      30.20R WCI  17
DECATUR        CLEAR     30  20  66 NW14G23   30.21R WCI  19
PEORIA         CLEAR     28  19  69 NW7       30.23R WCI  21
LACON*         CLEAR     28  20  70 NW8       30.22R WCI  20
LINCOLN*       CLEAR     30  22  73 NW3       30.23R
SPRINGFIELD    CLEAR     31  21  66 NW8       30.24R WCI  23
TAYLORVILLE    CLEAR     30  22  72 NW9       30.23R WCI  22
$$

ILZ033-039-045-046-055>057-062-063-220400-
EAST-CENTRAL ILLINOIS

CITY           SKY/WX    TMP DP  RH WIND       PRES   REMARKS
CHAMPAIGN      CLEAR     29  24  82 NW8       30.18S WCI  21
DANVILLE*      CLEAR     30  23  76 NW9       30.14R WCI  22
RANTOUL*       CLEAR     31  26  81 NW9       30.18R WCI  23
MATTOON        CLEAR     30  23  75 NW15      30.18R WCI  19
PARIS*         CLEAR     30  25  84 NW9       30.18R WCI  21
$$

ILZ079-100>102-220400-
SOUTHWEST ILLINOIS

CITY           SKY/WX    TMP DP  RH WIND       PRES   REMARKS
ALTON          CLEAR     32  23  69 N6        30.26R WCI  26
BELLEVILLE     CLEAR     35  21  57 NW14      30.23R WCI  26
CAHOKIA*       CLEAR     35  19  52 N16G28    30.26R WCI  25
SPARTA*        CLEAR     37  23  58 NW13G23   30.23R WCI  28
$$

ILZ064>066-069>071-074>076-080>082-084>086-088>090-092>094-220400-
SOUTH-CENTRAL ILLINOIS

CITY           SKY/WX    TMP DP  RH WIND       PRES   REMARKS
CARBONDALE     CLEAR     40  25  55 N13       30.19R
CAIRO*         CLEAR     45  32  60 N10       30.16R
EFFINGHAM*     CLEAR     33  24  71 NW12      30.22R WCI  24
MARION         CLEAR     42  25  50 N9        30.19R
MT. VERNON     CLEAR     36  22  56 VRB5G17   30.20R WCI  32
CENTRALIA*     CLEAR     35  25  65 N14G23    30.21R WCI  26
SALEM*         CLEAR     35  23  63 NW13      30.21R WCI  26
METROPOLIS*    CLEAR     46  25  44 N13G22    30.16R
$$

ILZ067-068-072-073-078-083-087-091-220400-
SOUTHEAST ILLINOIS

CITY           SKY/WX    TMP DP  RH WIND       PRES   REMARKS
LAWRENCEVILLE  CLEAR     36  23  59 N25G31    30.18R WCI  24
FLORA*         CLEAR     36  25  64 N14       30.20R WCI  27
FAIRFIELD*     CLEAR     36  24  62 N6        30.18R WCI  31
HARRISBURG*    CLEAR     41  25  53 NW6       30.18R
ROBINSON*      CLEAR     32  23  69 N10G20    30.19R WCI  24
CARMI*         CLEAR     40  27  61 N14       30.16R
$$

ABBREVIATIONS USED IN REMARKS
   TC - TEMPERATURE IN CELSIUS
  WCI - WIND CHILL INDEX
   HX - HEAT INDEX
  VSB - VISIBILITY
$$





USA.gov is the U.S. government's official web portal to all federal, state and local government web resources and services.